Tracking 32110 objects as of 7-Nov-2025
HD Live streaming from Space Station
objects crossing your sky now

IRIDIUM 33 DEB

Track IRIDIUM 33 DEB now!
10-day predictions


NORAD ID: 33867
Int'l Code: 1997-051AL
Perigee: 455.3 km
Apogee: 475.8 km
Inclination: 86.4 °
Period: 93.8 minutes
Semi major axis: 6836 km
RCS: 0.1307 m2 (medium)
Launch date: September 14, 1997
Source: United States (US)
Launch site: TYURATAM MISSILE AND SPACE COMPLEX (TTMTR)

Note: This is SATELLITE DEBRIS
Your satellite tracking list
Your tracking list is empty




NASA's NSSDC Master Catalog

Two Line Element Set (TLE):
1 33867U 97051AL  25310.89257051  .00194947  00000-0  54438-2 0  9997
2 33867  86.3640   8.2015 0014999 185.1544 174.9556 15.35844618889560
Source of the keplerian elements: AFSPC